Regional Weather Roundup
Issued by NWS

Home | Current Version | Previous Version | Text Only | Print | Product List | Glossary Off
Versions: 1 2 3 4 5 6 7 8 9 10 11 12 13 14 15 16 17 18 19 20 21 22 23 24 25 26 27 28 29 30 31 32 33 34 35 36 37 38 39 40 41 42 43 44 45 46 47 48 49 50

000
ASUS43 KIND 021509
RWRIN

WEATHER ROUNDUP FOR INDIANA
NATIONAL WEATHER SERVICE INDIANAPOLIS IN
1100 AM EDT TUE SEP 02 2014

NOTE: "FAIR" INDICATES FEW OR NO CLOUDS BELOW 12,000 FEET WITH NO
SIGNIFICANT WEATHER AND/OR OBSTRUCTIONS TO VISIBILITY.

* - STATION DOES NOT REPORT WEATHER SUCH AS PRECIPITATION OR FOG.

+ - STATION NOT QUALITY CONTROLLED BY THE NATIONAL WEATHER SERVICE.
    USE DATA WITH CAUTION...ESPECIALLY DEWPOINT AND RELATIVE
    HUMIDITY OBSERVATIONS.

INZ001>003-010>013-019-020-021600-
NORTHWEST INDIANA

CITY           SKY/WX    TMP DP  RH WIND       PRES   REMARKS
GARY /AIRPORT/ PTSUNNY   73  68  83 SW7         N/A
KNOX *+        CLOUDY    70  65  85 W5        29.91R
LA PORTE +     RAIN      69  69 100 SW6       29.93R
MICHIGAN CITY+ LGT RAIN  72  68  88 W3        29.93R
MONTICELLO +   CLOUDY    70  67  91 SW12      29.93R
RENSSELAER +   CLOUDY    72  70  94 SW8       29.94R
VALPARAISO     RAIN      69  67  93 SW9       29.94R FOG

$$

LMZ046-743>745-021600-
SOUTHERN LAKE MICHIGAN

STATION/POSITION TIME  TEMP WIND        PRES
                       AIR  DIR/SP/G
                 (UTC) (F)  (DEG/KT/KT) (MB)
MICHIGAN CITY    1500   70  220/ 10/ 11   N/A

$$

INZ004-005-014>016-021>024-021600-
NORTH CENTRAL INDIANA

CITY           SKY/WX    TMP DP  RH WIND       PRES   REMARKS
ELKHART        CLOUDY    72  66  83 W7        29.92R
GOSHEN         CLOUDY    72  66  81 W13       29.92R
LOGANSPORT +   CLOUDY    68  64  88 W10       29.95R
PERU/GRISSOM   CLOUDY    69  69 100 W12       29.95R
ROCHESTER +    CLOUDY    72  68  88 SW6       29.94R
SOUTH BEND     PTSUNNY   72  66  81 SW7       29.92R
WARSAW +       CLOUDY    70  66  88 W9        29.93R

$$

INZ006>009-017-018-025>027-021600-
NORTHEAST INDIANA

CITY           SKY/WX    TMP DP  RH WIND       PRES   REMARKS
ANGOLA *+      CLOUDY    72  63  73 VRB6      29.91R
AUBURN +       LGT RAIN  68  63  83 SW9       29.93R
FORT WAYNE     CLOUDY    69  66  90 SW10      29.94R
HUNTINGTON +   CLOUDY    68  66  93 W8        29.94R

$$

INZ028-029-035-036-043>045-051>053-021600-
WEST CENTRAL INDIANA

CITY           SKY/WX    TMP DP  RH WIND       PRES   REMARKS
GREENCASTLE +  CLOUDY    70  66  88 S3        29.97R
LAFAYETTE      CLOUDY    69  67  93 SW8       29.95R
TERRE HAUTE    CLOUDY    71  67  87 SW6       29.96R

$$

INZ030>032-037>040-046>048-054>057-064-065-021600-
CENTRAL INDIANA

CITY           SKY/WX    TMP DP  RH WIND       PRES   REMARKS
CP ATTERBURY + PTSUNNY   72  66  83 S12       29.97F
COLUMBUS       PTSUNNY   70  70 100 S10       29.96F
FRANKFORT +    CLOUDY    70  70 100 W6        29.97R
INDIANAPOLIS   PTSUNNY   70  66  87 SW6       29.96R
-EAGLE CREEK   CLOUDY    70  65  84 S5        29.95R
KOKOMO *+      CLOUDY    70  64  83 W12       29.95R
MARION +       CLOUDY    69  65  86 SW8       29.96R
MT COMFORT *+  PTSUNNY   70 N/A N/A S6        29.97R
SHELBYVILLE    PTSUNNY   72  66  81 S13       29.95S
ZIONSVILLE +   CLOUDY    73  66  79 SW6       29.96R

$$

INZ033-034-041-042-049-050-058-059-021600-
EAST CENTRAL INDIANA

CITY           SKY/WX    TMP DP  RH WIND       PRES   REMARKS
MUNCIE         CLOUDY    69  65  86 SW7       29.96R

$$

INZ060-061-067>069-081>083-085>088-021600-
SOUTHWEST INDIANA

CITY           SKY/WX    TMP DP  RH WIND       PRES   REMARKS
EVANSVILLE     CLOUDY    74  70  87 S8        29.98R
WASHINGTON +   CLOUDY    72  70  95 S10       29.95S

$$

INZ062-063-066-070>080-084-089>092-021600-
SOUTH CENTRAL AND SOUTHEAST INDIANA

CITY           SKY/WX    TMP DP  RH WIND       PRES   REMARKS
BLOOMINGTON    PTSUNNY   73  68  84 S8        29.95F
NORTH VERNON + CLOUDY    70  70 100 S3        29.98

$$




USA.gov is the U.S. government's official web portal to all federal, state and local government web resources and services.